Location: Peebles
(55.6412°N, 3.1714°W)
Time: 16:54:01
(UTC+01:00)

USA 281 - Pass Details

Date: 25 January 2022
Orbit: 1070 x 1089 km, 106.0° (Epoch: 25 March)

Event Time Altitude Azimuth Distance (km) Brightness Sun altitude
Rises 04:09:21 0° 32° (NNE) 3,902 6.8 -34.5°
Reaches altitude 10° 04:12:04 10° 24° (NNE) 2,945 5.9 -34.1°
Enters shadow 04:16:11 30° 351° (N) 1,835 4.4 -33.6°
